Date String (YYYY-MM-DD hh:mm:ss) UTC,Instrument flags,Ambient pressure (hPa),Sample flow (lpm),Bypass flow (lpm),Sample temperature (°C),Ambient temperature (°C),ASC tube jacket temperature (°C),LED temperature (°C),Box temperature (°C),Sample RH (%),Span deviation,Mass concentration (μg/m³),Mass concentration (μg/m³),Mass concentration (μg/m³)
DateTimeUTC,F1_M11,P_M11,Q1_M11,Q2_M11,T1_M11,T2_M11,T3_M11,T4_M11,T5_M11,U1_M11,ZSPAN_M11,X0_M11,X2_M11,X1_M11
2023-02-18 12:00:00,,0821.7,5.01,0.00,22.2,20.7,00.0,31.1,23.8,06.5,0000.0,0003.22,0000.93,0000.52
2023-02-18 12:01:00,,0821.8,4.98,0.00,22.2,20.6,00.0,31.1,23.7,06.1,0000.0,0003.08,0000.87,0000.51
2023-02-18 12:02:00,,0821.8,4.97,0.00,22.1,20.5,00.0,31.1,23.7,06.4,0000.0,0002.48,0000.85,0000.52
2023-02-18 12:03:00,,0821.8,5.00,0.00,22.1,20.4,00.0,31.1,23.6,06.7,0000.0,0002.28,0000.83,0000.52
2023-02-18 12:04:00,,0821.7,5.00,0.00,22.1,20.3,00.0,31.1,23.6,06.1,0000.0,0002.27,0000.82,0000.52
2023-02-18 12:05:00,,0821.7,5.01,0.00,22.0,20.5,00.0,31.0,23.6,06.3,0000.0,0002.37,0000.86,0000.52
2023-02-18 12:06:00,,0821.6,5.00,0.00,22.1,21.6,00.0,31.0,23.9,06.3,0000.0,0002.32,0000.85,0000.52
2023-02-18 12:07:00,,0821.7,5.04,0.00,22.2,22.7,00.0,31.0,24.3,06.4,0000.0,0002.34,0000.85,0000.52
2023-02-18 12:08:00,,0821.7,5.06,0.00,22.4,22.9,00.0,31.0,24.4,06.2,0000.0,0002.26,0000.83,0000.52
2023-02-18 12:09:00,,0821.7,5.01,0.00,22.4,22.3,00.0,31.1,24.3,06.3,0000.0,0002.08,0000.84,0000.52
2023-02-18 12:10:00,,0821.8,4.98,0.00,22.4,21.8,00.0,31.1,24.2,06.3,0000.0,0001.48,0000.84,0000.53
2023-02-18 12:11:00,,0821.8,5.01,0.00,22.3,21.4,00.0,31.1,24.1,06.4,0000.0,0001.45,0000.83,0000.52
2023-02-18 12:12:00,,0821.7,5.00,0.00,22.3,21.1,00.0,31.2,24.0,06.5,0000.0,0001.52,0000.85,0000.53
2023-02-18 12:13:00,,0821.6,5.00,0.00,22.3,20.8,00.0,31.2,23.9,06.3,0000.0,0001.59,0000.87,0000.53
2023-02-18 12:14:00,,0821.6,5.00,0.00,22.2,20.7,00.0,31.2,23.8,06.3,0000.0,0001.63,0000.90,0000.53
2023-02-18 12:15:00,,0821.6,5.00,0.00,22.2,20.6,00.0,31.1,23.8,06.7,0000.0,0001.83,0000.93,0000.53
2023-02-18 12:16:00,,0821.4,5.00,0.00,22.2,20.5,00.0,31.1,23.7,06.3,0000.0,0001.88,0000.93,0000.53
2023-02-18 12:17:00,,0821.5,5.00,0.00,22.1,20.4,00.0,31.1,23.7,06.0,0000.0,0001.98,0000.92,0000.53
2023-02-18 12:18:00,,0821.4,5.00,0.00,22.1,20.4,00.0,31.1,23.6,06.1,0000.0,0001.94,0000.90,0000.53
2023-02-18 12:19:00,,0821.3,5.00,0.00,22.1,20.4,00.0,31.1,23.6,05.9,0000.0,0002.45,0000.90,0000.52
2023-02-18 12:20:00,,0821.5,4.99,0.00,22.0,20.3,00.0,31.1,23.5,06.2,0000.0,0002.51,0000.90,0000.52
2023-02-18 12:21:00,,0821.5,5.01,0.00,22.0,20.5,00.0,31.0,23.6,06.0,0000.0,0002.54,0000.91,0000.52
2023-02-18 12:22:00,,0821.5,5.02,0.00,22.1,21.6,00.0,31.0,23.9,06.3,0000.0,0002.51,0000.91,0000.52
2023-02-18 12:23:00,,0821.5,4.94,0.00,22.2,22.7,00.0,31.0,24.2,06.2,0000.0,0002.45,0000.90,0000.52
2023-02-18 12:24:00,,0821.5,5.04,0.00,22.3,23.0,00.0,31.0,24.3,06.3,0000.0,0002.40,0000.88,0000.52
2023-02-18 12:25:00,,0821.5,5.00,0.00,22.3,22.3,00.0,31.1,24.2,06.1,0000.0,0002.40,0000.87,0000.52
2023-02-18 12:26:00,,0821.5,4.99,0.00,22.3,21.8,00.0,31.1,24.1,06.2,0000.0,0002.29,0000.84,0000.52
2023-02-18 12:27:00,,0821.5,5.00,0.00,22.3,21.4,00.0,31.1,24.0,06.4,0000.0,0002.12,0000.80,0000.52
2023-02-18 12:28:00,,0821.5,4.95,0.00,22.3,21.0,00.0,31.1,23.9,06.5,0000.0,0002.02,0000.80,0000.51
2023-02-18 12:29:00,,0821.5,5.00,0.00,22.2,20.9,00.0,31.1,23.9,06.4,0000.0,0002.03,0000.81,0000.52
2023-02-18 12:30:00,,0821.6,5.00,0.00,22.2,20.7,00.0,31.1,23.8,06.6,0000.0,0001.44,0000.77,0000.51
2023-02-18 12:31:00,,0821.5,5.04,0.00,22.2,20.5,00.0,31.1,23.8,06.7,0000.0,0001.35,0000.75,0000.52
2023-02-18 12:32:00,,0821.4,5.01,0.00,22.2,20.4,00.0,31.1,23.8,06.3,0000.0,0001.32,0000.73,0000.52
2023-02-18 12:33:00,,0821.5,5.00,0.00,22.1,20.3,00.0,31.1,23.8,06.6,0000.0,0001.31,0000.73,0000.52
2023-02-18 12:34:00,,0821.4,5.01,0.00,22.1,20.2,00.0,31.1,23.7,06.4,0000.0,0001.34,0000.73,0000.52
2023-02-18 12:35:00,,0821.4,5.00,0.00,22.1,20.1,00.0,31.1,23.7,06.4,0000.0,0001.26,0000.71,0000.52
2023-02-18 12:36:00,,0821.4,5.00,0.00,22.0,20.0,00.0,31.0,23.6,06.7,0000.0,0001.23,0000.70,0000.52
2023-02-18 12:37:00,,0821.4,5.01,0.00,22.0,20.2,00.0,31.0,23.6,06.8,0000.0,0001.20,0000.71,0000.52
2023-02-18 12:38:00,,0821.3,4.99,0.00,22.1,21.4,00.0,30.9,23.9,06.8,0000.0,0001.40,0000.75,0000.53
2023-02-18 12:39:00,,0821.4,4.98,0.00,22.2,22.7,00.0,30.9,24.2,07.6,0000.0,0002.09,0000.98,0000.73
2023-02-18 12:40:00,,0821.5,4.95,0.00,22.3,22.9,00.0,30.9,24.3,07.4,0000.0,0002.58,0001.39,0001.12
2023-02-18 12:41:00,,0821.4,4.99,0.00,22.3,22.2,00.0,31.0,24.2,07.6,0000.0,0003.19,0001.87,0001.57
2023-02-18 12:42:00,,0821.4,5.01,0.00,22.3,21.8,00.0,31.1,24.1,07.5,0000.0,0003.78,0002.32,0001.98
2023-02-18 12:43:00,,0821.4,4.99,0.00,22.3,21.4,00.0,31.1,24.0,07.8,0000.0,0004.39,0002.74,0002.35
2023-02-18 12:44:00,,0821.4,5.01,0.00,22.2,21.1,00.0,31.1,23.9,07.9,0000.0,0005.17,0003.21,0002.84
2023-02-18 12:45:00,,0821.4,5.02,0.00,22.2,20.8,00.0,31.1,23.8,07.5,0000.0,0006.55,0003.46,0003.17
2023-02-18 12:46:00,,0821.4,5.00,0.00,22.1,20.5,00.0,31.1,23.7,06.9,0000.0,0007.51,0003.63,0003.32
2023-02-18 12:47:00,,0821.4,5.00,0.00,22.1,20.3,00.0,31.1,23.6,06.8,0000.0,0007.68,0003.76,0003.43
2023-02-18 12:48:00,,0821.3,4.99,0.00,22.0,20.2,00.0,31.1,23.6,06.5,0000.0,0007.76,0003.82,0003.48
2023-02-18 12:49:00,,0821.1,5.01,0.00,22.0,20.1,00.0,31.1,23.6,06.1,0000.0,0007.69,0003.81,0003.48
2023-02-18 12:50:00,,0821.2,5.00,0.00,22.0,20.1,00.0,31.0,23.6,05.8,0000.0,0007.24,0003.67,0003.38
2023-02-18 12:51:00,,0821.2,4.99,0.00,21.9,20.0,00.0,31.0,23.6,05.9,0000.0,0006.83,0003.46,0003.17
2023-02-18 12:52:00,,0821.3,4.98,0.00,21.9,20.0,00.0,31.0,23.6,05.9,0000.0,0006.34,0003.22,0002.77
2023-02-18 12:53:00,,0821.4,5.01,0.00,21.9,20.0,00.0,30.9,23.5,06.5,0000.0,0005.78,0002.88,0002.37
2023-02-18 12:54:00,,0821.4,4.99,0.00,21.9,19.9,00.0,30.9,23.5,06.8,0000.0,0005.22,0002.47,0001.99
2023-02-18 12:55:00,,0821.4,4.99,0.00,21.9,20.6,00.0,30.9,23.6,06.9,0000.0,0004.50,0001.97,0001.51
2023-02-18 12:56:00,,0821.4,5.02,0.00,22.0,21.9,00.0,30.8,23.9,06.6,0000.0,0003.15,0001.56,0001.13
2023-02-18 12:57:00,,0821.4,5.03,0.00,22.2,22.9,00.0,30.8,24.2,06.7,0000.0,0002.12,0001.28,0000.87
2023-02-18 12:58:00,,0821.4,4.96,0.00,22.2,22.6,00.0,30.9,24.2,06.5,0000.0,0001.87,0001.07,0000.67
2023-02-18 12:59:00,,0821.4,5.00,0.00,22.2,22.1,00.0,31.0,24.1,06.2,0000.0,0001.86,0001.02,0000.59
